Time,TemperatureF,DewpointF,PressureIn,WindDirection,WindDirectionDegrees,WindSpeedMPH,WindSpeedGustMPH,Humidity,HourlyPrecipIn,Conditions,Clouds,dailyrainin,SoftwareType,DateUTC
2015-04-21 00:00:00,65.7,53.6,29.74,ENE,68,0.0,0.0,65,0.00,,---,0.00,VWS V14.01,2015-04-21 04:00:00,
2015-04-21 00:07:00,65.5,53.8,29.76,ENE,68,0.0,0.0,66,0.00,,---,0.00,VWS V14.01,2015-04-21 04:07:00,
2015-04-21 00:12:00,65.5,53.8,29.76,ENE,68,0.0,0.0,66,0.00,,---,0.00,VWS V14.01,2015-04-21 04:12:00,
2015-04-21 00:17:00,65.5,53.8,29.76,ENE,68,0.0,0.0,66,0.00,,---,0.00,VWS V14.01,2015-04-21 04:17:00,
2015-04-21 00:22:00,65.5,54.2,29.76,ENE,68,0.0,0.0,67,0.00,,---,0.00,VWS V14.01,2015-04-21 04:22:00,
2015-04-21 00:27:00,65.5,54.2,29.76,East,90,0.0,0.0,67,0.00,,---,0.00,VWS V14.01,2015-04-21 04:27:00,
2015-04-21 00:32:00,65.5,54.2,29.76,East,90,0.0,0.0,67,0.00,,---,0.00,VWS V14.01,2015-04-21 04:32:00,
2015-04-21 00:37:00,65.3,54.1,29.76,East,90,0.0,0.0,67,0.00,,---,0.00,VWS V14.01,2015-04-21 04:37:00,
2015-04-21 00:42:00,65.1,54.3,29.76,East,90,0.0,0.0,68,0.00,,---,0.00,VWS V14.01,2015-04-21 04:42:00,
2015-04-21 00:47:00,65.1,54.3,29.74,East,90,0.0,0.0,68,0.00,,---,0.00,VWS V14.01,2015-04-21 04:47:00,
2015-04-21 00:52:00,64.9,53.7,29.74,East,90,0.0,0.0,67,0.00,,---,0.00,VWS V14.01,2015-04-21 04:52:00,
2015-04-21 00:57:00,64.9,54.1,29.74,East,90,0.0,0.0,68,0.00,,---,0.00,VWS V14.01,2015-04-21 04:57:00,
2015-04-21 01:02:00,64.9,54.5,29.74,East,90,0.0,0.0,69,0.00,,---,0.00,VWS V14.01,2015-04-21 05:02:00,
2015-04-21 01:07:00,64.9,54.9,29.74,East,90,0.0,0.0,70,0.00,,---,0.00,VWS V14.01,2015-04-21 05:07:00,
2015-04-21 01:12:00,64.9,55.3,29.74,East,90,0.0,0.0,71,0.00,,---,0.00,VWS V14.01,2015-04-21 05:12:00,
2015-04-21 01:17:00,64.9,55.3,29.76,East,90,0.0,0.0,71,0.00,,---,0.00,VWS V14.01,2015-04-21 05:17:00,
2015-04-21 01:22:00,64.9,55.3,29.76,East,90,0.0,0.0,71,0.00,,---,0.00,VWS V14.01,2015-04-21 05:22:00,
2015-04-21 01:27:00,64.9,55.3,29.76,East,90,0.0,0.0,71,0.00,,---,0.00,VWS V14.01,2015-04-21 05:27:00,
2015-04-21 01:32:00,64.9,55.7,29.76,East,90,0.0,0.0,72,0.00,,---,0.00,VWS V14.01,2015-04-21 05:32:00,
2015-04-21 01:37:00,64.9,56.1,29.76,East,90,0.0,0.0,73,0.00,,---,0.00,VWS V14.01,2015-04-21 05:37:00,
2015-04-21 01:42:00,65.1,56.3,29.76,East,90,0.0,0.0,73,0.00,,---,0.00,VWS V14.01,2015-04-21 05:42:00,
2015-04-21 01:47:00,65.1,56.3,29.74,East,90,0.0,0.0,73,0.00,,---,0.00,VWS V14.01,2015-04-21 05:47:00,
2015-04-21 01:52:00,65.1,56.6,29.74,East,90,0.0,0.0,74,0.00,,---,0.00,VWS V14.01,2015-04-21 05:52:00,
2015-04-21 01:57:00,65.1,56.6,29.74,East,90,0.0,0.0,74,0.00,,---,0.00,VWS V14.01,2015-04-21 05:57:00,
2015-04-21 02:07:00,65.1,56.6,29.74,East,90,0.0,0.0,74,0.00,,---,0.00,VWS V14.01,2015-04-21 06:07:00,
2015-04-21 02:12:00,65.1,56.6,29.74,East,90,0.0,0.0,74,0.00,,---,0.00,VWS V14.01,2015-04-21 06:12:00,
2015-04-21 02:17:00,65.1,56.6,29.76,East,90,0.0,0.0,74,0.00,,---,0.00,VWS V14.01,2015-04-21 06:17:00,
2015-04-21 02:22:00,65.1,56.6,29.76,ENE,68,0.0,0.0,74,0.00,,---,0.00,VWS V14.01,2015-04-21 06:22:00,
2015-04-21 02:27:00,65.1,57.0,29.76,ENE,68,0.0,0.0,75,0.00,,---,0.00,VWS V14.01,2015-04-21 06:27:00,
2015-04-21 02:32:00,65.1,57.0,29.74,North,0,0.0,0.0,75,0.00,,---,0.00,VWS V14.01,2015-04-21 06:32:00,
2015-04-21 02:37:00,65.1,57.4,29.74,ENE,68,0.0,0.0,76,0.00,,---,0.00,VWS V14.01,2015-04-21 06:37:00,
2015-04-21 02:42:00,65.1,57.4,29.74,ENE,68,0.0,0.0,76,0.00,,---,0.00,VWS V14.01,2015-04-21 06:42:00,
2015-04-21 02:47:00,65.1,57.7,29.74,ENE,68,0.0,0.0,77,0.00,,---,0.00,VWS V14.01,2015-04-21 06:47:00,
2015-04-21 02:52:00,65.3,58.3,29.74,NNW,338,0.0,0.0,78,0.00,,---,0.00,VWS V14.01,2015-04-21 06:52:00,
2015-04-21 02:57:00,65.3,58.6,29.74,East,90,0.0,0.0,79,0.00,,---,0.00,VWS V14.01,2015-04-21 06:57:00,
2015-04-21 03:02:00,65.5,59.2,29.76,NNW,338,0.0,0.0,80,0.00,,---,0.00,VWS V14.01,2015-04-21 07:02:00,
2015-04-21 03:07:00,65.7,59.7,29.76,ENE,68,0.0,0.0,81,0.00,,---,0.00,VWS V14.01,2015-04-21 07:07:00,
2015-04-21 03:12:00,65.8,59.8,29.76,ESE,112,0.0,0.0,81,0.00,,---,0.00,VWS V14.01,2015-04-21 07:12:00,
2015-04-21 03:17:00,65.8,59.8,29.74,ESE,112,0.0,0.0,81,0.00,,---,0.00,VWS V14.01,2015-04-21 07:17:00,
2015-04-21 03:23:00,65.8,59.5,29.74,ESE,112,0.0,0.0,80,0.00,,---,0.00,VWS V14.01,2015-04-21 07:23:00,
2015-04-21 03:28:00,65.8,59.5,29.74,ESE,112,0.0,0.0,80,0.00,,---,0.00,VWS V14.01,2015-04-21 07:28:00,
2015-04-21 03:33:00,65.7,59.0,29.74,ESE,112,0.0,0.0,79,0.00,,---,0.00,VWS V14.01,2015-04-21 07:33:00,
2015-04-21 03:38:00,65.8,59.2,29.74,ESE,112,0.0,0.0,79,0.00,,---,0.00,VWS V14.01,2015-04-21 07:38:00,
2015-04-21 03:43:00,65.8,59.2,29.74,ESE,112,0.0,0.0,79,0.00,,---,0.00,VWS V14.01,2015-04-21 07:43:00,
2015-04-21 03:48:00,65.7,59.0,29.76,ESE,112,0.0,0.0,79,0.00,,---,0.00,VWS V14.01,2015-04-21 07:48:00,
2015-04-21 03:53:00,65.7,59.0,29.76,ESE,112,0.0,0.0,79,0.00,,---,0.00,VWS V14.01,2015-04-21 07:53:00,
2015-04-21 03:58:00,65.7,59.3,29.76,ESE,112,0.0,0.0,80,0.00,,---,0.00,VWS V14.01,2015-04-21 07:58:00,
2015-04-21 04:03:00,65.7,59.0,29.74,ESE,112,0.0,0.0,79,0.00,,---,0.00,VWS V14.01,2015-04-21 08:03:00,
2015-04-21 04:08:00,65.7,59.3,29.74,ESE,112,0.0,0.0,80,0.00,,---,0.00,VWS V14.01,2015-04-21 08:08:00,
2015-04-21 04:13:00,65.8,59.5,29.74,ESE,112,0.0,0.0,80,0.00,,---,0.00,VWS V14.01,2015-04-21 08:13:00,
2015-04-21 04:23:00,65.7,59.3,29.74,ESE,112,0.0,0.0,80,0.00,,---,0.00,VWS V14.01,2015-04-21 08:23:00,
2015-04-21 04:28:00,65.8,59.5,29.74,ESE,112,0.0,0.0,80,0.00,,---,0.00,VWS V14.01,2015-04-21 08:28:00,
2015-04-21 04:33:00,65.8,59.8,29.74,ENE,68,0.0,0.0,81,0.00,,---,0.00,VWS V14.01,2015-04-21 08:33:00,
2015-04-21 04:38:00,65.8,59.8,29.74,SSE,158,0.0,0.0,81,0.00,,---,0.00,VWS V14.01,2015-04-21 08:38:00,
2015-04-21 04:43:00,65.8,60.2,29.74,ESE,112,0.0,0.0,82,0.00,,---,0.00,VWS V14.01,2015-04-21 08:43:00,
2015-04-21 04:48:00,65.8,60.2,29.74,ENE,68,0.0,0.0,82,0.00,,---,0.00,VWS V14.01,2015-04-21 08:48:00,
2015-04-21 04:53:00,65.8,60.2,29.74,ENE,68,0.0,0.0,82,0.00,,---,0.00,VWS V14.01,2015-04-21 08:53:00,
2015-04-21 04:58:00,65.8,60.2,29.74,ENE,68,0.0,0.0,82,0.00,,---,0.00,VWS V14.01,2015-04-21 08:58:00,
2015-04-21 05:03:00,65.8,60.2,29.74,ENE,68,0.0,0.0,82,0.00,,---,0.00,VWS V14.01,2015-04-21 09:03:00,
2015-04-21 05:08:00,65.8,60.2,29.74,ENE,68,0.0,0.0,82,0.00,,---,0.00,VWS V14.01,2015-04-21 09:08:00,
2015-04-21 05:13:00,65.8,60.2,29.74,ENE,68,0.0,0.0,82,0.00,,---,0.00,VWS V14.01,2015-04-21 09:13:00,
2015-04-21 05:18:00,65.7,59.7,29.74,ENE,68,0.0,0.0,81,0.00,,---,0.00,VWS V14.01,2015-04-21 09:18:00,
2015-04-21 05:23:00,65.7,60.0,29.74,ENE,68,0.0,0.0,82,0.00,,---,0.00,VWS V14.01,2015-04-21 09:23:00,
2015-04-21 05:28:00,65.7,60.0,29.74,ENE,68,0.0,0.0,82,0.00,,---,0.00,VWS V14.01,2015-04-21 09:28:00,
2015-04-21 05:33:00,65.8,60.5,29.74,ENE,68,0.0,0.0,83,0.00,,---,0.00,VWS V14.01,2015-04-21 09:33:00,
2015-04-21 05:38:00,65.8,60.5,29.74,ENE,68,0.0,0.0,83,0.00,,---,0.00,VWS V14.01,2015-04-21 09:38:00,
2015-04-21 05:43:00,65.7,60.0,29.74,ENE,68,0.0,0.0,82,0.00,,---,0.00,VWS V14.01,2015-04-21 09:43:00,
2015-04-21 05:48:00,65.8,60.5,29.76,ENE,68,0.0,0.0,83,0.00,,---,0.00,VWS V14.01,2015-04-21 09:48:00,
2015-04-21 05:53:00,65.8,60.9,29.76,ENE,68,0.0,0.0,84,0.00,,---,0.00,VWS V14.01,2015-04-21 09:53:00,
2015-04-21 05:58:00,65.8,60.9,29.76,ENE,68,0.0,0.0,84,0.00,,---,0.00,VWS V14.01,2015-04-21 09:58:00,
2015-04-21 06:03:00,65.8,61.2,29.76,ENE,68,0.0,0.0,85,0.00,,---,0.00,VWS V14.01,2015-04-21 10:03:00,
2015-04-21 06:08:00,65.8,60.9,29.76,ENE,68,0.0,0.0,84,0.00,,---,0.00,VWS V14.01,2015-04-21 10:08:00,
2015-04-21 06:13:00,65.8,60.5,29.76,ENE,68,0.0,0.0,83,0.00,,---,0.00,VWS V14.01,2015-04-21 10:13:00,
2015-04-21 06:18:00,65.7,60.4,29.74,ENE,68,0.0,0.0,83,0.00,,---,0.00,VWS V14.01,2015-04-21 10:18:00,
2015-04-21 06:23:00,65.8,60.5,29.74,ENE,68,0.0,0.0,83,0.00,,---,0.00,VWS V14.01,2015-04-21 10:23:00,
2015-04-21 06:28:00,65.8,60.9,29.74,ENE,68,0.0,0.0,84,0.00,,---,0.00,VWS V14.01,2015-04-21 10:28:00,
2015-04-21 06:33:00,65.8,60.9,29.74,ENE,68,0.0,0.0,84,0.00,,---,0.00,VWS V14.01,2015-04-21 10:33:00,
2015-04-21 06:38:00,65.8,60.5,29.74,ENE,68,0.0,0.0,83,0.00,,---,0.00,VWS V14.01,2015-04-21 10:38:00,
2015-04-21 06:43:00,65.8,60.9,29.74,ENE,68,0.0,0.0,84,0.00,,---,0.00,VWS V14.01,2015-04-21 10:43:00,
2015-04-21 06:48:00,65.8,60.5,29.74,ENE,68,0.0,0.0,83,0.00,,---,0.00,VWS V14.01,2015-04-21 10:48:00,
2015-04-21 06:53:00,65.8,60.9,29.74,ENE,68,0.0,0.0,84,0.00,,---,0.00,VWS V14.01,2015-04-21 10:53:00,
2015-04-21 06:58:00,65.8,60.9,29.74,ENE,68,0.0,0.0,84,0.00,,---,0.00,VWS V14.01,2015-04-21 10:58:00,
2015-04-21 07:03:00,65.8,60.9,29.74,ENE,68,0.0,0.0,84,0.00,,---,0.00,VWS V14.01,2015-04-21 11:03:00,
2015-04-21 07:08:00,65.8,61.2,29.74,ENE,68,0.0,0.0,85,0.00,,---,0.00,VWS V14.01,2015-04-21 11:08:00,
2015-04-21 07:13:00,66.0,61.7,29.74,ENE,68,0.0,0.0,86,0.00,,---,0.00,VWS V14.01,2015-04-21 11:13:00,
2015-04-21 07:18:00,66.0,61.4,29.76,ENE,68,0.0,0.0,85,0.00,,---,0.00,VWS V14.01,2015-04-21 11:18:00,
2015-04-21 07:23:00,66.0,61.7,29.76,ENE,68,0.0,0.0,86,0.00,,---,0.00,VWS V14.01,2015-04-21 11:23:00,
2015-04-21 07:28:00,66.2,61.9,29.76,ENE,68,0.0,0.0,86,0.00,,---,0.00,VWS V14.01,2015-04-21 11:28:00,
2015-04-21 07:33:00,66.2,62.2,29.76,ENE,68,0.0,0.0,87,0.00,,---,0.00,VWS V14.01,2015-04-21 11:33:00,
2015-04-21 07:38:00,66.4,62.4,29.76,ENE,68,0.0,0.0,87,0.00,,---,0.00,VWS V14.01,2015-04-21 11:38:00,
2015-04-21 07:43:00,66.6,62.6,29.76,ENE,68,0.0,0.0,87,0.00,,---,0.00,VWS V14.01,2015-04-21 11:43:00,
2015-04-21 07:48:00,66.7,62.8,29.76,ENE,68,0.0,0.0,87,0.00,,---,0.00,VWS V14.01,2015-04-21 11:48:00,
2015-04-21 07:53:00,66.9,62.9,29.76,ENE,68,0.0,0.0,87,0.00,,---,0.00,VWS V14.01,2015-04-21 11:53:00,
2015-04-21 07:58:00,67.3,63.6,29.76,ENE,68,0.0,0.0,88,0.00,,---,0.00,VWS V14.01,2015-04-21 11:58:00,
2015-04-21 08:03:00,67.6,64.0,29.76,ENE,68,0.0,0.0,88,0.00,,---,0.00,VWS V14.01,2015-04-21 12:03:00,
2015-04-21 08:08:00,68.4,64.7,29.76,ENE,68,0.0,0.0,88,0.00,,---,0.00,VWS V14.01,2015-04-21 12:08:00,
2015-04-21 08:13:00,68.7,65.0,29.76,ENE,68,0.0,0.0,88,0.00,,---,0.00,VWS V14.01,2015-04-21 12:13:00,
2015-04-21 08:18:00,69.1,64.7,29.79,ENE,68,0.0,0.0,86,0.00,,---,0.00,VWS V14.01,2015-04-21 12:18:00,
2015-04-21 08:23:00,69.3,63.9,29.79,ENE,68,0.0,0.0,83,0.00,,---,0.00,VWS V14.01,2015-04-21 12:23:00,
2015-04-21 08:28:00,69.4,63.7,29.79,ENE,68,0.0,0.0,82,0.00,,---,0.00,VWS V14.01,2015-04-21 12:28:00,
2015-04-21 08:33:00,69.8,63.7,29.79,ENE,68,0.0,0.0,81,0.00,,---,0.00,VWS V14.01,2015-04-21 12:33:00,
2015-04-21 08:38:00,70.0,63.2,29.79,SSE,158,0.0,0.0,79,0.00,,---,0.00,VWS V14.01,2015-04-21 12:38:00,
2015-04-21 08:43:00,70.2,63.3,29.79,South,180,0.0,0.0,79,0.00,,---,0.00,VWS V14.01,2015-04-21 12:43:00,
2015-04-21 08:48:00,70.9,64.1,29.79,South,180,0.0,0.0,79,0.00,,---,0.00,VWS V14.01,2015-04-21 12:48:00,
2015-04-21 08:53:00,71.4,64.2,29.79,South,180,0.0,0.0,78,0.00,,---,0.00,VWS V14.01,2015-04-21 12:53:00,
2015-04-21 08:58:00,71.6,62.9,29.79,South,180,0.0,0.0,74,0.00,,---,0.00,VWS V14.01,2015-04-21 12:58:00,
2015-04-21 09:03:00,72.0,61.2,29.79,ESE,112,0.0,0.0,69,0.00,,---,0.00,VWS V14.01,2015-04-21 13:03:00,
2015-04-21 09:08:00,72.5,60.9,29.79,NNW,338,0.0,0.0,67,0.00,,---,0.00,VWS V14.01,2015-04-21 13:08:00,
2015-04-21 09:13:00,73.4,60.5,29.79,NE,45,0.0,0.0,64,0.00,,---,0.00,VWS V14.01,2015-04-21 13:13:00,
2015-04-21 09:18:00,74.3,60.0,29.79,NE,45,0.0,0.0,61,0.00,,---,0.00,VWS V14.01,2015-04-21 13:18:00,
2015-04-21 09:23:00,75.0,58.8,29.79,NE,45,0.0,0.0,57,0.00,,---,0.00,VWS V14.01,2015-04-21 13:23:00,
2015-04-21 09:28:00,75.2,56.9,29.79,ENE,68,0.0,0.0,53,0.00,,---,0.00,VWS V14.01,2015-04-21 13:28:00,
2015-04-21 09:33:00,75.4,53.8,29.79,ENE,68,0.0,0.0,47,0.00,,---,0.00,VWS V14.01,2015-04-21 13:33:00,
2015-04-21 09:38:00,75.0,52.3,29.79,SW,225,0.0,0.0,45,0.00,,---,0.00,VWS V14.01,2015-04-21 13:38:00,
2015-04-21 09:43:00,75.0,51.0,29.79,SSE,158,0.0,0.0,43,0.00,,---,0.00,VWS V14.01,2015-04-21 13:43:00,
2015-04-21 09:48:00,76.5,52.3,29.79,NW,315,0.0,0.0,43,0.00,,---,0.00,VWS V14.01,2015-04-21 13:48:00,
2015-04-21 09:53:00,76.3,50.2,29.79,West,270,0.0,0.0,40,0.00,,---,0.00,VWS V14.01,2015-04-21 13:53:00,
2015-04-21 09:58:00,76.1,49.4,29.79,WSW,248,0.0,0.0,39,0.00,,---,0.00,VWS V14.01,2015-04-21 13:58:00,
2015-04-21 10:03:00,78.4,52.1,29.79,WSW,248,0.0,0.0,40,0.00,,---,0.00,VWS V14.01,2015-04-21 14:03:00,
2015-04-21 10:08:00,80.2,50.1,29.79,West,270,0.0,0.0,35,0.00,,---,0.00,VWS V14.01,2015-04-21 14:08:00,
2015-04-21 10:13:00,81.5,47.1,29.79,West,270,1.1,3.1,30,0.00,,---,0.00,VWS V14.01,2015-04-21 14:13:00,
2015-04-21 10:18:00,82.2,47.7,29.79,ESE,112,0.0,2.0,30,0.00,,---,0.00,VWS V14.01,2015-04-21 14:18:00,
2015-04-21 10:23:00,84.4,46.8,29.79,WNW,292,0.0,0.9,27,0.00,,---,0.00,VWS V14.01,2015-04-21 14:23:00,
2015-04-21 10:28:00,84.7,39.3,29.79,ENE,68,0.0,3.6,20,0.00,,---,0.00,VWS V14.01,2015-04-21 14:28:00,
2015-04-21 10:33:00,84.2,38.8,29.79,WSW,248,0.0,2.0,20,0.00,,---,0.00,VWS V14.01,2015-04-21 14:33:00,
2015-04-21 10:38:00,87.1,35.5,29.79,West,270,2.5,3.1,16,0.00,,---,0.00,VWS V14.01,2015-04-21 14:38:00,
2015-04-21 10:43:00,88.3,31.3,29.79,ENE,68,0.9,2.2,13,0.00,,---,0.00,VWS V14.01,2015-04-21 14:43:00,
2015-04-21 10:48:00,89.2,25.6,29.79,ENE,68,2.0,3.4,10,0.00,,---,0.00,VWS V14.01,2015-04-21 14:48:00,
2015-04-21 10:58:00,89.8,17.6,29.79,West,270,2.0,2.2,7,0.00,,---,0.00,VWS V14.01,2015-04-21 14:58:00,
2015-04-21 11:03:00,89.4,20.4,29.79,West,270,2.5,2.5,8,0.00,,---,0.00,VWS V14.01,2015-04-21 15:03:00,
2015-04-21 11:08:00,88.2,19.5,29.79,SE,135,0.0,2.0,8,0.00,,---,0.00,VWS V14.01,2015-04-21 15:08:00,
2015-04-21 11:13:00,87.6,19.1,29.79,SSE,158,2.2,2.7,8,0.00,,---,0.00,VWS V14.01,2015-04-21 15:13:00,
2015-04-21 11:18:00,90.0,17.7,29.79,West,270,1.3,3.4,7,0.00,,---,0.00,VWS V14.01,2015-04-21 15:18:00,
2015-04-21 11:23:00,90.3,18.0,29.79,WSW,248,1.3,2.5,7,0.00,,---,0.00,VWS V14.01,2015-04-21 15:23:00,
2015-04-21 11:28:00,90.7,10.6,29.79,West,270,2.0,2.9,5,0.00,,---,0.00,VWS V14.01,2015-04-21 15:28:00,
2015-04-21 11:33:00,91.2,10.9,29.79,NNW,338,1.1,3.1,5,0.00,,---,0.00,VWS V14.01,2015-04-21 15:33:00,
2015-04-21 11:38:00,91.0,10.8,29.79,West,270,0.9,3.4,5,0.00,,---,0.00,VWS V14.01,2015-04-21 15:38:00,
2015-04-21 11:43:00,91.6,6.3,29.79,ENE,68,0.9,2.9,4,0.00,,---,0.00,VWS V14.01,2015-04-21 15:43:00,
2015-04-21 11:48:00,91.6,6.3,29.79,South,180,0.9,2.9,4,0.00,,---,0.00,VWS V14.01,2015-04-21 15:48:00,
2015-04-21 11:53:00,91.0,10.8,29.79,North,0,1.6,4.3,5,0.00,,---,0.00,VWS V14.01,2015-04-21 15:53:00,
2015-04-21 11:58:00,91.6,6.3,29.79,NW,315,3.1,3.8,4,0.00,,---,0.00,VWS V14.01,2015-04-21 15:58:00,
2015-04-21 12:03:00,91.6,6.3,29.79,South,180,0.0,2.7,4,0.00,,---,0.00,VWS V14.01,2015-04-21 16:03:00,
2015-04-21 12:08:00,92.3,6.8,29.79,WNW,292,4.3,4.9,4,0.00,,---,0.00,VWS V14.01,2015-04-21 16:08:00,
2015-04-21 12:13:00,92.1,6.6,29.79,East,90,1.1,2.5,4,0.00,,---,0.00,VWS V14.01,2015-04-21 16:13:00,
2015-04-21 12:19:00,92.3,6.8,29.79,West,270,2.7,3.6,4,0.00,,---,0.00,VWS V14.01,2015-04-21 16:19:00,
2015-04-21 12:24:00,93.2,7.4,29.79,West,270,0.0,2.5,4,0.00,,---,0.00,VWS V14.01,2015-04-21 16:24:00,
2015-04-21 12:29:00,92.8,7.1,29.79,West,270,2.5,2.7,4,0.00,,---,0.00,VWS V14.01,2015-04-21 16:29:00,
2015-04-21 12:34:00,93.2,7.4,29.79,NNW,338,2.0,2.7,4,0.00,,---,0.00,VWS V14.01,2015-04-21 16:34:00,
2015-04-21 12:39:00,92.3,6.8,29.79,WSW,248,2.0,2.7,4,0.00,,---,0.00,VWS V14.01,2015-04-21 16:39:00,
2015-04-21 12:44:00,93.2,7.4,29.79,NNW,338,2.0,2.5,4,0.00,,---,0.00,VWS V14.01,2015-04-21 16:44:00,
2015-04-21 12:49:00,93.2,7.4,29.79,NNW,338,2.5,3.6,4,0.00,,---,0.00,VWS V14.01,2015-04-21 16:49:00,
2015-04-21 12:54:00,91.2,10.9,29.79,West,270,2.0,5.6,5,0.00,,---,0.00,VWS V14.01,2015-04-21 16:54:00,
2015-04-21 12:59:00,92.5,6.9,29.79,SW,225,1.6,2.7,4,0.00,,---,0.00,VWS V14.01,2015-04-21 16:59:00,
2015-04-21 13:04:00,92.3,6.8,29.79,West,270,1.3,2.5,4,0.00,,---,0.00,VWS V14.01,2015-04-21 17:04:00,
2015-04-21 13:09:00,91.6,6.3,29.79,WSW,248,2.0,3.4,4,0.00,,---,0.00,VWS V14.01,2015-04-21 17:09:00,
2015-04-21 13:14:00,93.7,7.7,29.79,SSE,158,1.3,2.0,4,0.00,,---,0.00,VWS V14.01,2015-04-21 17:14:00,
2015-04-21 13:19:00,92.8,7.1,29.76,SSE,158,1.6,2.7,4,0.00,,---,0.00,VWS V14.01,2015-04-21 17:19:00,
2015-04-21 13:20:00,93.2,7.4,29.76,East,90,1.1,2.7,4,0.00,,---,0.00,VWS V14.01,2015-04-21 17:20:00,
2015-04-21 13:25:00,93.7,7.7,29.76,South,180,1.6,2.2,4,0.00,,---,0.00,VWS V14.01,2015-04-21 17:25:00,
2015-04-21 13:30:00,94.5,8.2,29.76,WNW,292,2.7,4.0,4,0.00,,---,0.00,VWS V14.01,2015-04-21 17:30:00,
2015-04-21 13:35:00,92.1,6.6,29.76,NW,315,2.0,4.0,4,0.00,,---,0.00,VWS V14.01,2015-04-21 17:35:00,
2015-04-21 13:40:00,94.1,8.0,29.76,WNW,292,1.6,3.8,4,0.00,,---,0.00,VWS V14.01,2015-04-21 17:40:00,
2015-04-21 13:45:00,91.9,6.5,29.76,SSW,202,1.1,3.4,4,0.00,,---,0.00,VWS V14.01,2015-04-21 17:45:00,
2015-04-21 13:50:00,93.7,7.7,29.76,West,270,2.5,3.6,4,0.00,,---,0.00,VWS V14.01,2015-04-21 17:50:00,
2015-04-21 13:55:00,93.2,7.4,29.76,SSE,158,3.6,3.8,4,0.00,,---,0.00,VWS V14.01,2015-04-21 17:55:00,
2015-04-21 14:00:00,92.1,6.6,29.76,SW,225,1.1,3.6,4,0.00,,---,0.00,VWS V14.01,2015-04-21 18:00:00,
2015-04-21 14:05:00,90.0,10.1,29.76,SSE,158,0.0,4.0,5,0.00,,---,0.00,VWS V14.01,2015-04-21 18:05:00,
2015-04-21 14:10:00,91.8,6.4,29.76,West,270,2.0,2.0,4,0.00,,---,0.00,VWS V14.01,2015-04-21 18:10:00,
2015-04-21 14:15:00,91.6,6.3,29.76,WNW,292,1.6,3.1,4,0.00,,---,0.00,VWS V14.01,2015-04-21 18:15:00,
2015-04-21 14:20:00,91.8,6.4,29.76,North,0,1.1,3.4,4,0.00,,---,0.00,VWS V14.01,2015-04-21 18:20:00,
2015-04-21 14:25:00,90.3,10.3,29.76,West,270,0.0,3.4,5,0.00,,---,0.00,VWS V14.01,2015-04-21 18:25:00,
2015-04-21 14:30:00,89.1,9.4,29.76,WSW,248,0.0,2.2,5,0.00,,---,0.00,VWS V14.01,2015-04-21 18:30:00,
2015-04-21 14:35:00,90.7,10.6,29.76,ESE,112,2.7,2.7,5,0.00,,---,0.00,VWS V14.01,2015-04-21 18:35:00,
2015-04-21 14:40:00,90.7,10.6,29.76,NE,45,0.0,3.6,5,0.00,,---,0.00,VWS V14.01,2015-04-21 18:40:00,
2015-04-21 14:45:00,91.6,6.3,29.76,West,270,1.6,2.7,4,0.00,,---,0.00,VWS V14.01,2015-04-21 18:45:00,
2015-04-21 14:50:00,91.6,6.3,29.76,West,270,1.3,3.8,4,0.00,,---,0.00,VWS V14.01,2015-04-21 18:50:00,
2015-04-21 14:55:00,89.6,9.8,29.76,SW,225,0.0,3.4,5,0.00,,---,0.00,VWS V14.01,2015-04-21 18:55:00,
2015-04-21 15:00:00,90.1,10.2,29.76,WSW,248,0.0,1.6,5,0.00,,---,0.00,VWS V14.01,2015-04-21 19:00:00,
2015-04-21 15:05:00,91.8,6.4,29.76,West,270,1.3,2.0,4,0.00,,---,0.00,VWS V14.01,2015-04-21 19:05:00,
2015-04-21 15:10:00,91.4,6.1,29.76,NW,315,0.0,4.3,4,0.00,,---,0.00,VWS V14.01,2015-04-21 19:10:00,
2015-04-21 15:15:00,91.8,6.4,29.76,West,270,2.0,3.1,4,0.00,,---,0.00,VWS V14.01,2015-04-21 19:15:00,
2015-04-21 15:20:00,90.9,10.7,29.76,West,270,0.0,2.9,5,0.00,,---,0.00,VWS V14.01,2015-04-21 19:20:00,
2015-04-21 15:25:00,91.2,10.9,29.76,SW,225,0.0,2.9,5,0.00,,---,0.00,VWS V14.01,2015-04-21 19:25:00,
2015-04-21 15:30:00,90.1,10.2,29.76,WSW,248,0.0,3.1,5,0.00,,---,0.00,VWS V14.01,2015-04-21 19:30:00,
2015-04-21 15:35:00,89.1,9.4,29.74,WSW,248,0.0,3.4,5,0.00,,---,0.00,VWS V14.01,2015-04-21 19:35:00,
2015-04-21 15:40:00,89.4,9.7,29.74,SW,225,1.3,2.7,5,0.00,,---,0.00,VWS V14.01,2015-04-21 19:40:00,
2015-04-21 15:45:00,89.2,9.6,29.74,ENE,68,2.2,3.1,5,0.00,,---,0.00,VWS V14.01,2015-04-21 19:45:00,
2015-04-21 15:50:00,88.9,9.3,29.74,SSW,202,1.6,3.1,5,0.00,,---,0.00,VWS V14.01,2015-04-21 19:50:00,
2015-04-21 15:55:00,89.2,9.6,29.74,WNW,292,2.5,2.5,5,0.00,,---,0.00,VWS V14.01,2015-04-21 19:55:00,
2015-04-21 16:00:00,89.8,9.9,29.74,NNW,338,1.6,3.4,5,0.00,,---,0.00,VWS V14.01,2015-04-21 20:00:00,
2015-04-21 16:05:00,89.1,9.4,29.74,WSW,248,2.0,2.9,5,0.00,,---,0.00,VWS V14.01,2015-04-21 20:05:00,
2015-04-21 16:10:00,88.9,9.3,29.74,WSW,248,1.1,2.0,5,0.00,,---,0.00,VWS V14.01,2015-04-21 20:10:00,
2015-04-21 16:15:00,88.7,9.2,29.74,East,90,1.1,2.9,5,0.00,,---,0.00,VWS V14.01,2015-04-21 20:15:00,
2015-04-21 16:20:00,89.1,9.4,29.74,SSE,158,0.0,3.1,5,0.00,,---,0.00,VWS V14.01,2015-04-21 20:20:00,